JES3104 SABE-SACO

Flight info

Callsign JES3104
Flight time N/A
Altitude 36000
Route ATOVO4B ATOVO UW5 ASISA ASISA1Q
Aircraft A21N/M-SDE3FGHIRWY/LB1

Departure

Time N/A
Airport Aeroparque Jorge Newbery (SABE)

Arrival

Time 2026-05-03 22:14
Airport Ingeniero Aeronáutico Ambrosio L.V. Taravella International Airport (SACO)
Time Latitude Longitude Altitude Speed Heading
2026-05-03 21:33 -31.64599 -63.25990 16525 ft 338 kts 299°
2026-05-03 21:34 -31.63476 -63.28421 16082 ft 337 kts 299°
2026-05-03 21:34 -31.62375 -63.30804 15648 ft 335 kts 299°
2026-05-03 21:34 -31.61264 -63.33210 15209 ft 333 kts 299°
2026-05-03 21:34 -31.60171 -63.35572 14776 ft 332 kts 299°
2026-05-03 21:35 -31.59076 -63.37942 14343 ft 330 kts 299°
2026-05-03 21:35 -31.57981 -63.40309 13908 ft 328 kts 299°
2026-05-03 21:35 -31.56908 -63.42627 13484 ft 327 kts 299°
2026-05-03 21:35 -31.55820 -63.44976 13053 ft 325 kts 299°
2026-05-03 21:36 -31.54740 -63.47306 12625 ft 324 kts 299°
2026-05-03 21:36 -31.53667 -63.49620 12202 ft 322 kts 299°
2026-05-03 21:36 -31.52607 -63.51905 11783 ft 321 kts 299°
2026-05-03 21:36 -31.51544 -63.54199 11361 ft 319 kts 299°
2026-05-03 21:37 -31.50494 -63.56463 10941 ft 318 kts 300°
2026-05-03 21:37 -31.49442 -63.58730 10519 ft 317 kts 300°
2026-05-03 21:37 -31.48397 -63.60980 10280 ft 308 kts 300°
2026-05-03 21:37 -31.47392 -63.63141 10205 ft 293 kts 300°
2026-05-03 21:38 -31.46448 -63.65169 10126 ft 280 kts 301°
2026-05-03 21:38 -31.43931 -63.70788 9532 ft 263 kts 292°
2026-05-03 21:39 -31.43494 -63.72861 9197 ft 265 kts 279°
2026-05-03 21:39 -31.43410 -63.75020 8874 ft 265 kts 274°
2026-05-03 21:39 -31.43417 -63.77155 8558 ft 264 kts 273°
2026-05-03 21:39 -31.43436 -63.79318 8240 ft 262 kts 273°
2026-05-03 21:40 -31.43450 -63.81452 7928 ft 261 kts 273°
2026-05-03 21:40 -31.43461 -63.83554 7621 ft 259 kts 273°
2026-05-03 21:40 -31.43468 -63.85643 7318 ft 258 kts 273°
2026-05-03 21:40 -31.43473 -63.87735 7016 ft 257 kts 273°
2026-05-03 21:41 -31.43477 -63.89836 6713 ft 255 kts 273°
2026-05-03 21:41 -31.43481 -63.91900 6418 ft 254 kts 273°
2026-05-03 21:41 -31.43483 -63.93966 6123 ft 253 kts 273°
2026-05-03 21:41 -31.43486 -63.96005 5834 ft 252 kts 273°
2026-05-03 21:42 -31.43489 -63.98080 5540 ft 251 kts 273°
2026-05-03 21:42 -31.43490 -64.00108 5253 ft 250 kts 273°
2026-05-03 21:42 -31.43492 -64.02136 5147 ft 245 kts 273°
2026-05-03 21:42 -31.43494 -64.04140 5103 ft 245 kts 273°
2026-05-03 21:43 -31.43494 -64.06126 4916 ft 246 kts 273°
2026-05-03 21:43 -31.43494 -64.08106 4637 ft 243 kts 273°
2026-05-03 21:43 -31.43493 -64.10056 4408 ft 237 kts 273°
2026-05-03 21:43 -31.43494 -64.11902 4334 ft 225 kts 273°
2026-05-03 21:44 -31.43496 -64.13676 4247 ft 209 kts 274°
2026-05-03 21:44 -31.43496 -64.15230 4063 ft 199 kts 275°
2026-05-03 21:44 -31.43212 -64.16615 3956 ft 168 kts 313°
2026-05-03 21:44 -31.42335 -64.17384 3994 ft 157 kts 335°
2026-05-03 21:45 -31.41435 -64.17953 3939 ft 152 kts 335°
2026-05-03 21:45 -31.40649 -64.18460 3677 ft 147 kts 335°
2026-05-03 21:45 -31.39707 -64.19084 3194 ft 150 kts 334°
2026-05-03 21:45 -31.38860 -64.19656 2785 ft 151 kts 334°
2026-05-03 21:46 -31.38023 -64.20230 2394 ft 151 kts 334°
2026-05-03 21:46 -31.37362 -64.20608 2108 ft 148 kts 344°
2026-05-03 21:46 -31.36130 -64.20837 1979 ft 146 kts
2026-05-03 21:46 -31.35089 -64.20766 1932 ft 150 kts
2026-05-03 21:47 -31.34059 -64.20792 1828 ft 150 kts
2026-05-03 21:47 -31.33004 -64.20807 1702 ft 151 kts
2026-05-03 21:47 -31.31969 -64.20824 1581 ft 148 kts
2026-05-03 21:47 -31.30993 -64.20835 1645 ft 139 kts
2026-05-03 21:48 -31.30002 -64.20846 2174 ft 148 kts
2026-05-03 21:48 -31.28985 -64.20845 2852 ft 151 kts
2026-05-03 21:48 -31.27885 -64.20847 3366 ft 164 kts
2026-05-03 21:48 -31.26695 -64.20758 3710 ft 182 kts 17°
2026-05-03 21:49 -31.25618 -64.19898 4071 ft 202 kts 51°
2026-05-03 21:49 -31.25145 -64.18256 4372 ft 233 kts 84°
2026-05-03 21:49 -31.25128 -64.16263 4783 ft 257 kts 87°
2026-05-03 21:49 -31.25134 -64.14136 4984 ft 265 kts 87°
2026-05-03 21:50 -31.25132 -64.11980 4986 ft 266 kts 86°
2026-05-03 21:50 -31.25121 -64.09801 4991 ft 266 kts 86°
2026-05-03 21:50 -31.25106 -64.07628 4994 ft 266 kts 86°
2026-05-03 21:50 -31.25002 -64.05488 4991 ft 263 kts 77°
2026-05-03 21:51 -31.24485 -64.03436 4994 ft 260 kts 64°
2026-05-03 21:51 -31.23706 -64.01541 4997 ft 260 kts 60°
2026-05-03 21:51 -31.22875 -63.99659 4996 ft 260 kts 60°
2026-05-03 21:51 -31.22051 -63.97793 4996 ft 260 kts 60°
2026-05-03 21:52 -31.21225 -63.95908 4996 ft 260 kts 60°
2026-05-03 21:52 -31.20407 -63.94025 4996 ft 260 kts 60°
2026-05-03 21:52 -31.19589 -63.92136 4996 ft 260 kts 60°
2026-05-03 21:52 -31.18777 -63.90255 4996 ft 260 kts 60°
2026-05-03 21:53 -31.17958 -63.88358 4996 ft 260 kts 60°
2026-05-03 21:53 -31.17146 -63.86475 4996 ft 260 kts 61°
2026-05-03 21:53 -31.16336 -63.84617 4990 ft 246 kts 59°
2026-05-03 21:53 -31.15548 -63.82898 4993 ft 237 kts 59°
2026-05-03 21:54 -31.14772 -63.81233 4988 ft 228 kts 59°
2026-05-03 21:54 -31.14029 -63.79639 4992 ft 223 kts 59°
2026-05-03 21:54 -31.13293 -63.78057 4994 ft 222 kts 59°
2026-05-03 21:54 -31.12549 -63.76458 4995 ft 222 kts 59°
2026-05-03 21:55 -31.11818 -63.74883 4995 ft 222 kts 59°
2026-05-03 21:55 -31.11346 -63.73156 4977 ft 227 kts 86°
2026-05-03 21:55 -31.11750 -63.71340 4983 ft 235 kts 120°
2026-05-03 21:55 -31.12957 -63.70035 4985 ft 242 kts 153°
2026-05-03 21:56 -31.14582 -63.69505 4998 ft 245 kts 170°
2026-05-03 21:56 -31.16284 -63.69264 4997 ft 246 kts 173°
2026-05-03 21:56 -31.17977 -63.69084 4996 ft 246 kts 174°
2026-05-03 21:56 -31.19686 -63.68913 4996 ft 246 kts 174°
2026-05-03 21:57 -31.21373 -63.68748 4996 ft 246 kts 174°
2026-05-03 21:57 -31.23078 -63.68581 4996 ft 246 kts 174°
2026-05-03 21:57 -31.24795 -63.68413 4996 ft 246 kts 174°
2026-05-03 21:57 -31.26484 -63.68249 4996 ft 246 kts 174°
2026-05-03 21:58 -31.28197 -63.68082 4996 ft 246 kts 174°
2026-05-03 21:58 -31.29899 -63.67916 4996 ft 246 kts 174°
2026-05-03 21:58 -31.31603 -63.67751 4996 ft 246 kts 174°
2026-05-03 21:58 -31.33340 -63.67583 4996 ft 246 kts 174°
2026-05-03 21:59 -31.35055 -63.67417 4996 ft 246 kts 174°
2026-05-03 21:59 -31.36751 -63.67253 4996 ft 246 kts 174°
2026-05-03 21:59 -31.38497 -63.67084 4996 ft 246 kts 174°
2026-05-03 21:59 -31.40201 -63.66920 4996 ft 246 kts 174°
2026-05-03 22:00 -31.41907 -63.66756 4996 ft 246 kts 174°
2026-05-03 22:00 -31.43613 -63.66592 4996 ft 246 kts 174°
2026-05-03 22:00 -31.45320 -63.66429 4996 ft 246 kts 174°
2026-05-03 22:00 -31.47057 -63.66262 4996 ft 246 kts 174°
2026-05-03 22:01 -31.48760 -63.66100 4996 ft 246 kts 174°
2026-05-03 22:01 -31.50473 -63.65936 4996 ft 246 kts 174°
2026-05-03 22:01 -31.52184 -63.65814 4991 ft 246 kts 184°
2026-05-03 22:01 -31.53783 -63.66387 4983 ft 244 kts 216°
2026-05-03 22:02 -31.54893 -63.67844 4988 ft 238 kts 250°
2026-05-03 22:02 -31.55259 -63.69720 5001 ft 234 kts 270°
2026-05-03 22:02 -31.55314 -63.71627 4999 ft 234 kts 274°
2026-05-03 22:02 -31.55309 -63.73537 4997 ft 234 kts 274°
2026-05-03 22:03 -31.55292 -63.75452 4991 ft 233 kts 275°
2026-05-03 22:03 -31.55090 -63.77292 4776 ft 226 kts 290°
2026-05-03 22:03 -31.54573 -63.79023 4425 ft 226 kts 295°
2026-05-03 22:03 -31.53993 -63.80750 4096 ft 226 kts 295°
2026-05-03 22:04 -31.53441 -63.82448 4010 ft 224 kts 294°
2026-05-03 22:04 -31.52889 -63.84213 4002 ft 227 kts 293°
2026-05-03 22:04 -31.52361 -63.85957 3999 ft 227 kts 293°
2026-05-03 22:04 -31.51843 -63.87705 3997 ft 228 kts 292°
2026-05-03 22:05 -31.51327 -63.89466 3987 ft 219 kts 292°
2026-05-03 22:05 -31.50865 -63.91069 3974 ft 201 kts 292°
2026-05-03 22:05 -31.50432 -63.92577 4057 ft 184 kts 293°
2026-05-03 22:05 -31.50216 -63.94072 4024 ft 192 kts 272°
2026-05-03 22:06 -31.50349 -63.95648 4014 ft 194 kts 265°
2026-05-03 22:06 -31.50553 -63.97207 3998 ft 188 kts 264°
2026-05-03 22:06 -31.50762 -63.98673 3975 ft 176 kts 264°
2026-05-03 22:06 -31.50964 -64.00063 3978 ft 171 kts 264°
2026-05-03 22:07 -31.51167 -64.01441 3984 ft 168 kts 264°
2026-05-03 22:07 -31.51365 -64.02784 3990 ft 167 kts 264°
2026-05-03 22:07 -31.51564 -64.04122 3874 ft 163 kts 264°
2026-05-03 22:07 -31.51756 -64.05416 3632 ft 163 kts 264°
2026-05-03 22:08 -31.51950 -64.06757 3583 ft 165 kts 264°
2026-05-03 22:08 -31.51966 -64.08051 3353 ft 156 kts 298°
2026-05-03 22:08 -31.51271 -64.08943 3003 ft 148 kts 332°
2026-05-03 22:08 -31.50388 -64.09569 2909 ft 150 kts 333°
2026-05-03 22:09 -31.49497 -64.10207 2914 ft 151 kts 329°
2026-05-03 22:09 -31.48633 -64.10874 2901 ft 149 kts 328°
2026-05-03 22:09 -31.47814 -64.11549 2898 ft 149 kts 327°
2026-05-03 22:10 -31.46181 -64.12944 2907 ft 153 kts 326°
2026-05-03 22:10 -31.45409 -64.13615 2902 ft 154 kts 326°
2026-05-03 22:10 -31.44570 -64.14349 2900 ft 155 kts 325°
2026-05-03 22:10 -31.43735 -64.15081 2932 ft 155 kts 325°
2026-05-03 22:11 -31.42941 -64.15778 2910 ft 155 kts 325°
2026-05-03 22:11 -31.42290 -64.16350 2902 ft 155 kts 325°
2026-05-03 22:11 -31.41144 -64.17356 2744 ft 154 kts 325°
2026-05-03 22:11 -31.40311 -64.18087 2632 ft 154 kts 325°
2026-05-03 22:12 -31.39537 -64.18767 2532 ft 154 kts 325°
2026-05-03 22:12 -31.38736 -64.19469 2510 ft 153 kts 325°
2026-05-03 22:12 -31.37836 -64.20258 2502 ft 154 kts 326°
2026-05-03 22:12 -31.37021 -64.20702 2446 ft 153 kts 351°
2026-05-03 22:13 -31.35885 -64.20723 2293 ft 154 kts
2026-05-03 22:13 -31.34817 -64.20746 2060 ft 153 kts 358°
2026-05-03 22:13 -31.33749 -64.20785 1803 ft 152 kts 359°
2026-05-03 22:13 -31.32696 -64.20802 1638 ft 151 kts 360°
2026-05-03 22:14 -31.31653 -64.20824 1557 ft 141 kts 359°
2026-05-03 22:14 -31.30811 -64.20836 1575 ft 98 kts 359°
2026-05-03 22:14 -31.30297 -64.20847 1591 ft 48 kts 358°
2026-05-03 22:14 -31.30135 -64.20859 1595 ft 6 kts 36°
2026-05-03 22:15 -31.30155 -64.20830 1594 ft 8 kts 185°
2026-05-03 22:15 -31.30231 -64.20839 1592 ft 13 kts 183°
2026-05-03 22:15 -31.30330 -64.20843 1590 ft 17 kts 179°
2026-05-03 22:15 -31.30471 -64.20841 1585 ft 22 kts 179°
2026-05-03 22:16 -31.30646 -64.20837 1581 ft 26 kts 179°
2026-05-03 22:16 -31.30842 -64.20837 1574 ft 30 kts 179°
2026-05-03 22:16 -31.31050 -64.20834 1568 ft 30 kts 179°
2026-05-03 22:16 -31.31260 -64.20829 1562 ft 29 kts 178°
2026-05-03 22:17 -31.31412 -64.20827 1559 ft 9 kts 183°
2026-05-03 22:17 -31.31465 -64.20871 1559 ft 9 kts 262°
2026-05-03 22:17 -31.31464 -64.20931 1562 ft 1 kts 270°
2026-05-03 22:19 -31.31464 -64.20936 1562 ft 2 kts 270°
2026-05-03 22:19 -31.31464 -64.20969 1563 ft 4 kts 270°
2026-05-03 22:19 -31.31464 -64.20995 1564 ft 2 kts 270°
2026-05-03 22:20 -31.31465 -64.21008 1565 ft 2 kts 255°
2026-05-03 22:20 -31.31487 -64.21042 1565 ft 7 kts 229°
2026-05-03 22:20 -31.31536 -64.21075 1564 ft 7 kts 189°
2026-05-03 22:20 -31.31566 -64.21103 1563 ft 5 kts 254°
2026-05-03 22:21 -31.31576 -64.21142 1565 ft 4 kts 252°
2026-05-03 22:21 -31.31580 -64.21158 1565 ft 1 kts 250°
2026-05-03 22:21 -31.31583 -64.21165 1565 ft 0 kts 250°
2026-05-03 22:21 -31.31586 -64.21176 1566 ft 2 kts 251°
2026-05-03 22:22 -31.31588 -64.21184 1566 ft 0 kts 251°